This is the latest recevied weather packets stored in our database for station/object NK7E-1. If no packets are shown the sender has not sent any weather packets the latest 10 day(s).
| Time | Temp. | Humidity | Pressure | Rain* | Wind** | Luminosity | Snow |
|---|---|---|---|---|---|---|---|
| 1777588799 | 30.56° C | 13% | 1006 hPa | 0 mm | - | - | - |
| 1777588199 | 30.56° C | 15% | 1006.3 hPa | 0 mm | - | - | - |
| 1777587599 | 31.11° C | 14% | 1006.4 hPa | 0 mm | - | - | - |
| 1777586999 | 31.11° C | 14% | 1006.5 hPa | 0 mm | - | - | - |
| 1777586402 | 31.67° C | 14% | 1006.8 hPa | 0 mm | - | - | - |
| 1777585800 | 31.11° C | 13% | 1007 hPa | 0 mm | - | - | - |
| 1777585200 | 31.11° C | 13% | 1007.2 hPa | 0 mm | - | - | - |
| 1777584601 | 31.11° C | 13% | 1007.4 hPa | 0 mm | - | - | - |
| 1777584000 | 30.56° C | 12% | 1007.6 hPa | 0 mm | - | - | - |
| 1777583400 | 30.56° C | 11% | 1007.9 hPa | 0 mm | - | - | - |
| 1777582799 | 30.56° C | 10% | 1008.3 hPa | 0 mm | - | - | - |
| 1777582199 | 30.56° C | 10% | 1008.3 hPa | 0 mm | - | - | - |
| 1777581598 | 30° C | 10% | 1008.5 hPa | 0 mm | - | - | - |
| 1777580999 | 30° C | 10% | 1008.8 hPa | 0 mm | - | - | - |
| 1777580399 | 30° C | 10% | 1008.9 hPa | 0 mm | - | - | - |
| 1777579799 | 30° C | 10% | 1009 hPa | 0 mm | - | - | - |
| 1777579201 | 28.89° C | 11% | 1009.3 hPa | 0 mm | - | - | - |
| 1777578600 | 28.33° C | 11% | 1009.4 hPa | 0 mm | - | - | - |
| 1777577999 | 28.89° C | 10% | 1009.7 hPa | 0 mm | - | - | - |
| 1777577399 | 30° C | 10% | 1009.8 hPa | 0 mm | - | - | - |
| 1777576799 | 28.89° C | 11% | 1010 hPa | 0 mm | - | - | - |
| 1777576199 | 28.89° C | 11% | 1010.2 hPa | 0 mm | - | - | - |
| 1777575601 | 28.89° C | 11% | 1010.3 hPa | 0 mm | - | - | - |
| 1777575001 | 27.78° C | 12% | 1010.5 hPa | 0 mm | - | - | - |
| 1777574400 | 27.22° C | 12% | 1010.7 hPa | 0 mm | - | - | - |
* Rain latest hour (hover to see other rain measurements)
** Current wind speed in m/s (hover to see current wind gust speed)